STARLINK-2472 (48130 NORAD) Tracking and Keplerian Element Data

This shows tracking and keplerian element data for the satellite.

Feedback or suggestion? Click here.




ElementValue
Catalog48130
NameSTARLINK-2472
Epoch Orbit178
Epoch Day136.75001157
Epoch Year2021
RAAN149.1138
Inclination53.0466
Eccentricity0.0001255
Argument of Perigee65.9549
Mean Anonmoly319.6902
Mean Motion15.29485713
Decay Rate-0.0106911
L11 48130U 21027AQ 21136.75001157 -.01069110 00000-0 -40252-1 0 9991
L22 48130 53.0466 149.1138 0001255 65.9549 319.6902 15.29485713 1781

Live tracking and technical data element details for STARLINK-2472 (NORAD 48130). STARLINK-2472 can be tracked NOW for your location showing map with azimuth and elevation plus other details from your city location.

Track the satellite on the map from your city or location and see movement details for azimuth, elevation, latitude, longitude, range, height, and movement on the map or in text.







IsCatalogInMostPopularTable: catalog: 48130, numindb: 16
Update: records affected: 1



GetName: 48130 STARLINK-2472

Hit Count: updated at: Mon, 17 May 2021 16:49:27 GMT